[[{"header":{"parameterUnit":"m.s-1","parameterCategory":1,"la1":30.2991,"la2":30.254,"lo1":-89.0895,"lo2":-89.0444,"dy":0.0017,"dx":0.0017,"nx":28,"ny":28,"refTime":"2025-12-22T09:00:00:Z","depth":0,"parameterNumber":2,"parameterNumberName":"U-component_of_WINDS"},"data":[0,0,0,0,0,0,0,0,0,0,0,0,0,0,0,0,0,0,0,0,0,0,0,0,0,0,0,0,0,0,0,0,0,0,0,0,0,0,0,0,0,0,0,0,0,0,0,0,0,0,0,0,0,0,0,0,0,0,-1.925,-1.9251,0,-1.9329,-1.933,-1.9331,-1.9328,-1.9327,-1.9326,-1.9325,-1.9411,-1.9414,-1.9417,0,0,0,0,0,0,0,0,0,0,0,0,0,-1.9102,-1.9105,-1.925,-1.9251,-1.9252,-1.9329,-1.933,-1.9331,-1.9328,-1.9327,-1.9325,-1.9324,-1.9409,-1.9413,-1.9417,0,0,0,0,0,0,0,0,0,0,0,0,0,-1.9172,-1.9105,-1.925,-1.926,-1.9261,-1.9329,-1.933,-1.9331,-1.9328,-1.9327,-1.9325,-1.9323,-1.9408,-1.9413,-1.9418,-1.9482,0,0,-1.9433,-1.9435,0,0,0,0,0,0,0,0,-1.9168,-1.9178,-1.9257,-1.9259,-1.9261,-1.9317,-1.9309,-1.9382,-1.9329,-1.9303,-1.9325,-1.9323,-1.9381,-1.9388,-1.9407,-1.9486,-1.949,-1.9434,-1.9437,-1.9439,-1.944,0,0,0,0,0,0,0,-1.9163,-1.9174,-1.9282,-1.9259,-1.9261,-1.9262,-1.927,-1.9323,-1.9351,-1.9305,-1.9305,-1.9314,-1.9382,-1.9402,-1.9409,-1.9491,-1.9433,-1.9438,-1.9441,-1.9443,-1.9628,-1.963,0,0,0,0,0,0,-1.9156,-1.917,-1.9279,-1.9284,-1.9209,-1.9266,-1.9275,-1.9301,-1.935,-1.9356,-1.9316,-1.9314,-1.9394,-1.9403,-1.9412,-1.949,-1.9439,-1.9443,-1.9446,-1.9626,-1.9628,-1.9631,0,0,0,0,0,0,-1.9152,-1.9165,-1.9276,-1.9227,-1.9241,-1.927,-1.9299,-1.9303,-1.9323,-1.9358,-1.9363,-1.9331,-1.9393,-1.9405,-1.9464,-1.9493,-1.9446,-1.945,-1.9624,-1.9627,-1.963,-1.9648,0,0,0,0,0,0,-1.9148,-1.9164,-1.9188,-1.9228,-1.9244,-1.9326,-1.9301,-1.9306,-1.9331,-1.933,-1.9374,-1.9379,-1.9393,-1.9457,-1.9469,-1.9499,-1.9454,-1.9621,-1.9625,-1.9629,-1.9645,-1.9651,-1.9656,0,0,0,0,0,-1.9143,-1.9191,-1.9189,-1.9202,-1.9274,-1.9327,-1.9337,-1.935,-1.9334,-1.9358,-1.9381,-1.9378,-1.9488,-1.9463,-1.9477,-1.9509,-1.962,-1.9624,-1.9628,-1.9642,-1.965,-1.9656,0,0,0,0,0,0,-1.9156,-1.9196,-1.9195,-1.9257,-1.9288,-1.9327,-1.9358,-1.9358,-1.9396,-1.9393,-1.941,-1.942,-1.9479,-1.95,-1.9472,-1.9574,-1.9552,-1.9559,-1.9558,-1.9565,-1.9571,-1.9565,-1.9458,0,0,0,0,0,-1.9165,-1.9204,-1.9238,-1.929,-1.9305,-1.9329,-1.9353,-1.936,-1.9395,-1.9408,-1.9435,-1.947,-1.9512,-1.954,-1.9581,-1.9648,-1.9658,-1.9677,-1.9683,-1.9687,-1.9693,-1.9731,-1.9739,-1.9645,-1.9645,-1.9645,0,0,-1.9186,-1.9213,-1.9237,-1.9293,-1.9318,-1.9359,-1.934,-1.9385,-1.9416,-1.9416,-1.9473,-1.9494,-1.9534,-1.9597,-1.9627,-1.9617,-1.9722,-1.9693,-1.9696,-1.97,-1.9736,-1.9745,-1.9753,-1.9648,-1.9647,-1.9647,0,0,-1.9245,-1.9269,-1.9315,-1.934,-1.9378,-1.9394,-1.9405,-1.9443,-1.9457,-1.9514,-1.9515,-1.9553,-1.9626,-1.9654,-1.9678,-1.9748,-1.9747,-1.9761,-1.9791,-1.9827,-1.9835,-1.9842,-1.9867,-1.9875,-1.9767,-1.9768,-1.9768,0,-1.9267,-1.9327,-1.9339,-1.9383,-1.9408,-1.9408,-1.9455,-1.948,-1.953,-1.9548,-1.9536,-1.9627,-1.9654,-1.9724,-1.9741,-1.976,-1.9774,-1.9756,-1.9833,-1.9839,-1.9846,-1.987,-1.9879,-1.9769,-1.9769,-1.9769,-1.9768,0,-1.9352,-1.9394,-1.9426,-1.9473,-1.9501,-1.9547,-1.9567,-1.9595,-1.96,-1.9617,-1.9676,-1.9708,-1.9756,-1.9773,-1.9779,-1.9845,-1.9837,-1.9829,-1.9807,-1.9856,-1.9879,-1.9888,-1.9771,-1.977,-1.977,-1.977,0,0,-1.9421,-1.9473,-1.9485,-1.9506,-1.9548,-1.9581,-1.9627,-1.9672,-1.9696,-1.9731,-1.977,-1.9832,-1.9824,-1.9852,-1.9861,-1.9893,-1.9946,-1.9881,-1.9882,-1.9891,-2.002,-2.0026,-2.0037,-1.9946,-1.9948,-1.9949,-2.0017,0,-1.9485,-1.9564,-1.9575,-1.9646,-1.9685,-1.9686,-1.9726,-1.9758,-1.9775,-1.9812,-1.9832,-1.9875,-1.9862,-1.9878,-1.991,-1.9933,-1.9972,-1.9928,-1.9984,-1.9986,-1.9973,-2.0049,-2.0055,-2.0117,-2.0026,-2.0028,-2.0029,0,-1.9569,-1.9604,-1.9678,-1.9714,-1.9731,-1.9767,-1.9809,-1.9844,-1.988,-1.989,-1.9921,-1.9926,-1.9976,-1.9952,-2.0021,-1.999,-2.0014,-2.0029,-2.0032,-2.0038,-2.001,-2.0056,-2.0138,-2.0147,-2.0043,-2.0042,-2.0041,0,-1.9612,-1.9678,-1.973,-1.9748,-1.9792,-1.9817,-1.9837,-1.9871,-1.9897,-1.9935,-1.9952,-1.9996,-2.002,-2.0054,-2.0072,-2.0053,-2.014,-2.0117,-2.0151,-2.0151,-2.0169,-2.0168,-2.0255,-2.0185,-2.0185,-2.0184,-2.0184,0,-1.9681,-1.9726,-1.975,-1.9782,-1.9833,-1.9847,-1.9898,-1.9918,-1.9948,-1.9985,-1.999,-2.0025,-2.0046,-2.0086,-2.01,-2.0155,-2.0166,-2.0177,-2.0181,-2.0177,-2.0175,-2.0192,-2.0188,-2.0187,-2.0186,-2.0186,-2.0185,0,-1.9737,-1.9755,-1.9812,-1.9849,-1.9859,-1.9895,-1.9927,-1.996,-1.9977,-2.0024,-2.0036,-2.0064,-2.011,-2.0131,-2.0189,-2.0199,-2.0261,-2.0262,-2.0248,-2.025,-2.0282,-2.0279,-2.0384,-2.0398,-2.0318,-2.0319,-2.0319,0,-1.978,-1.9814,-1.9854,-1.9878,-1.9898,-1.9938,-1.9964,-1.998,-2.0007,-2.005,-2.0078,-2.0124,-2.0161,-2.0235,-2.0262,-2.0306,-2.0308,-2.0342,-2.0315,-2.031,-2.0308,-2.0306,-2.031,-2.0346,-2.0347,-2.0348,-2.0348,0,-1.9854,-1.9861,-1.9898,-1.9937,-1.9968,-2.0001,-2.0033,-2.0053,-2.0074,-2.0105,-2.0151,-2.018,-2.0238,-2.0284,-2.033,-2.0352,-2.0355,-2.0356,-2.0367,-2.0363,-2.0354,-2.0359,-2.0262,-2.0354,-2.0353,-2.0353,-2.0353,-2.0353,-1.9905,-1.9936,-1.9968,-2.0009,-2.0034,-2.0064,-2.0096,-2.0116,-2.0154,-2.0201,-2.0209,-2.0258,-2.0294,-2.0356,-2.038,-2.042,-2.0412,-2.0427,-2.0431,-2.0434,-2.0436,-2.0347,-2.0429,-2.0429,-2.0429,-2.0428,-2.0428,0,-1.998,-2.0,-2.0037,-2.0081,-2.0113,-2.011,-2.0146,-2.0174,-2.0216,-2.0249,-2.0285,-2.0338,-2.0383,-2.0413,-2.0458,-2.0485,-2.0487,-2.0496,-2.0494,-2.05,-2.044,-2.0427,-2.0493,-2.0493,-2.0493,-2.0493,-2.0493,-2.0493,-2.0022,-2.0073,-2.0084,-2.0149,-2.017,-2.0216,-2.0237,-2.0265,-2.0291,-2.0349,-2.0385,-2.0404,-2.0436,-2.0483,-2.0525,-2.0532,-2.0549,-2.0559,-2.0566,-2.0511,-2.0504,-2.0497,-2.0485,-2.0562,-2.0562,-2.0622,-2.0623,-2.0623]},{"header":{"parameterUnit":"m.s-1","parameterCategory":1,"la1":30.2991,"la2":30.254,"lo1":-89.0895,"lo2":-89.0444,"dy":0.0017,"dx":0.0017,"nx":28,"ny":28,"refTime":"2025-12-22T09:00:00:Z","depth":0,"parameterNumber":3,"parameterNumberName":"V-component_of_WINDS"},"data":[0,0,0,0,0,0,0,0,0,0,0,0,0,0,0,0,0,0,0,0,0,0,0,0,0,0,0,0,0,0,0,0,0,0,0,0,0,0,0,0,0,0,0,0,0,0,0,0,0,0,0,0,0,0,0,0,0,0,1.0599,1.0598,0,1.0567,1.0567,1.0567,1.0536,1.0535,1.0535,1.0534,1.0499,1.0499,1.0498,0,0,0,0,0,0,0,0,0,0,0,0,0,1.0629,1.0629,1.0599,1.0598,1.0598,1.0567,1.0567,1.0567,1.0536,1.0535,1.0535,1.0534,1.05,1.0499,1.0498,0,0,0,0,0,0,0,0,0,0,0,0,0,1.0608,1.0628,1.0599,1.0579,1.0577,1.0568,1.0567,1.0566,1.0536,1.0535,1.0534,1.0534,1.05,1.0499,1.0498,1.0505,0,0,1.0496,1.0495,0,0,0,0,0,0,0,0,1.061,1.0607,1.0582,1.058,1.0578,1.0555,1.0565,1.0546,1.0536,1.0551,1.0534,1.0534,1.0518,1.0516,1.0511,1.0504,1.0502,1.0496,1.0495,1.0495,1.0495,0,0,0,0,0,0,0,1.0611,1.0609,1.0586,1.0582,1.0579,1.0571,1.0567,1.0561,1.0538,1.055,1.0548,1.0544,1.0517,1.0512,1.051,1.0502,1.0496,1.0495,1.0494,1.0494,1.0498,1.0498,0,0,0,0,0,0,1.0616,1.061,1.0587,1.0585,1.0593,1.0571,1.0567,1.0563,1.0538,1.0534,1.0545,1.0543,1.0514,1.0511,1.0509,1.0516,1.0495,1.0494,1.0494,1.0497,1.0498,1.0499,0,0,0,0,0,0,1.0617,1.0614,1.0589,1.0597,1.0593,1.0571,1.0567,1.0562,1.0558,1.0535,1.053,1.0544,1.0513,1.051,1.0507,1.0514,1.0494,1.0493,1.0497,1.0498,1.0498,1.053,0,0,0,0,0,0,1.0618,1.0615,1.0618,1.0597,1.0593,1.0588,1.0567,1.0562,1.0557,1.0554,1.0533,1.0529,1.0512,1.0508,1.0506,1.0513,1.0492,1.0496,1.0497,1.0498,1.0528,1.0532,1.0535,0,0,0,0,0,1.0619,1.0627,1.0618,1.0616,1.0597,1.0588,1.0586,1.0567,1.0557,1.056,1.0545,1.053,1.0513,1.0508,1.0505,1.0512,1.0495,1.0497,1.0498,1.0526,1.0531,1.0535,0,0,0,0,0,0,1.0649,1.0624,1.0614,1.0616,1.0605,1.0583,1.0586,1.0573,1.0563,1.0561,1.0537,1.0533,1.0532,1.0521,1.0516,1.0517,1.0502,1.0503,1.0525,1.0529,1.0532,1.0535,1.0492,0,0,0,0,0,1.0656,1.0652,1.0631,1.0635,1.0629,1.0609,1.0605,1.0591,1.0578,1.0573,1.0558,1.0545,1.0537,1.0532,1.0523,1.0526,1.0521,1.0529,1.0532,1.0535,1.0536,1.0537,1.054,1.0503,1.0503,1.0503,0,0,1.067,1.0656,1.0655,1.064,1.063,1.0626,1.0605,1.0602,1.0598,1.0572,1.0569,1.0557,1.054,1.054,1.0539,1.0531,1.0545,1.0537,1.0539,1.0539,1.0539,1.0542,1.0545,1.0504,1.0504,1.0504,0,0,1.0694,1.0683,1.0686,1.0676,1.066,1.0646,1.0647,1.0627,1.0619,1.0615,1.0595,1.059,1.0577,1.0566,1.0559,1.0578,1.0564,1.0576,1.0594,1.0595,1.0598,1.06,1.0607,1.061,1.0577,1.0577,1.0577,0,1.0714,1.0708,1.0688,1.0687,1.068,1.0657,1.0659,1.065,1.0632,1.0628,1.0619,1.0602,1.0589,1.0586,1.0591,1.0585,1.0585,1.0579,1.0599,1.0601,1.0603,1.061,1.0613,1.0579,1.0578,1.0578,1.0578,0,1.0733,1.0729,1.0733,1.0717,1.0711,1.0711,1.0691,1.0687,1.0674,1.0661,1.0656,1.064,1.0628,1.0626,1.0613,1.0621,1.0616,1.0603,1.0588,1.0609,1.0615,1.0617,1.0581,1.058,1.058,1.0579,0,0,1.0776,1.075,1.0752,1.0744,1.0725,1.0721,1.072,1.0708,1.0706,1.0694,1.0692,1.068,1.0668,1.066,1.0645,1.0646,1.0663,1.0633,1.0632,1.064,1.0671,1.0682,1.0685,1.0652,1.0653,1.0653,1.0672,0,1.0798,1.0795,1.0777,1.0779,1.0775,1.0752,1.0751,1.0739,1.0726,1.072,1.0705,1.0698,1.0682,1.0677,1.0677,1.0661,1.0669,1.0659,1.065,1.065,1.0656,1.0688,1.0699,1.0719,1.0675,1.0675,1.0675,0,1.0823,1.0814,1.0816,1.0797,1.0795,1.0794,1.0782,1.0777,1.0762,1.0752,1.0743,1.0726,1.0722,1.0707,1.0701,1.0695,1.0689,1.0681,1.0681,1.0681,1.0665,1.0689,1.0724,1.0728,1.0678,1.0678,1.0678,0,1.0856,1.0844,1.0844,1.0838,1.0815,1.0815,1.0806,1.079,1.0784,1.0773,1.0769,1.0757,1.0751,1.0742,1.0722,1.0713,1.0718,1.0701,1.071,1.071,1.0713,1.0713,1.0749,1.0708,1.0708,1.0708,1.0708,0,1.0883,1.0886,1.0858,1.0858,1.086,1.0838,1.084,1.0828,1.0814,1.081,1.0789,1.0786,1.0759,1.0753,1.0737,1.0734,1.0731,1.0723,1.0719,1.0726,1.0727,1.0723,1.0721,1.0709,1.0708,1.0708,1.0708,0,1.0921,1.0902,1.0901,1.0879,1.0874,1.0876,1.0857,1.0856,1.0841,1.0837,1.0835,1.0812,1.0803,1.0782,1.0767,1.0756,1.0758,1.075,1.0764,1.0762,1.0772,1.0772,1.0807,1.0811,1.0767,1.0767,1.0767,0,1.094,1.0941,1.092,1.0917,1.0908,1.0903,1.0897,1.0875,1.087,1.0852,1.0853,1.0843,1.0833,1.082,1.0801,1.079,1.0782,1.0795,1.078,1.0787,1.0783,1.0784,1.0784,1.0799,1.0799,1.08,1.08,0,1.0976,1.0967,1.096,1.095,1.0944,1.0934,1.0924,1.0922,1.0897,1.0892,1.0883,1.0876,1.0861,1.0851,1.0836,1.0825,1.0808,1.0805,1.0806,1.0814,1.0822,1.0819,1.0774,1.0804,1.0804,1.0804,1.0803,1.0803,1.1006,1.1006,1.0991,1.0984,1.0974,1.0964,1.0962,1.0947,1.094,1.0927,1.0914,1.0906,1.089,1.0869,1.0859,1.0852,1.0843,1.0845,1.0846,1.0847,1.0851,1.0822,1.0849,1.0849,1.0848,1.0848,1.0848,0,1.1042,1.1031,1.1025,1.1011,1.1005,1.099,1.0977,1.0973,1.0967,1.0954,1.0945,1.0935,1.0925,1.0905,1.0893,1.0891,1.0883,1.0888,1.0889,1.0887,1.0858,1.0859,1.0895,1.0895,1.0895,1.0895,1.0895,1.0895,1.106,1.106,1.1049,1.1043,1.1031,1.1025,1.1019,1.101,1.0999,1.0989,1.0981,1.0968,1.0951,1.0938,1.0927,1.0922,1.0918,1.0927,1.0919,1.0893,1.0889,1.0884,1.0885,1.0926,1.0926,1.0947,1.0948,1.0948]}]]